sat.trackr.live / text

‹ back to catalog

STARLINK-34213

NORAD 64148 · 2025-112C

PAYLOAD ACTIVE UNKNOWN

§ Identity

Operator
Country
US
Launch date
2025-05-27
Launch site
AFWTR
Launch vehicle
Mass (kg)
RCS (m²)

Purposes: comms

External: N2YO · Heavens-Above · Gunter

§ Orbital elements

Epoch: 2026-09-20T13:49:41.176992Z

Period
93.90 min
Inclination
97.2836°
Eccentricity
0.0000680
Mean motion
15.33469737 rev/d
Perigee alt
465.0 km
Apogee alt
465.9 km
Semi-major
6,843.6 km
B*
3.3697e-4
RAAN
310.6931°
Arg perigee
102.5945°
Mean anomaly
257.5374°
Rev number
7,276

§ Raw data

STARLINK-342131 64148U 25112C   26263.57617103  .00010828  00000+0  33697-3 0  99922 64148  97.2836 310.6931 0000680 102.5945 257.5374 15.33469737 72766

JSON: /api/v1/satellites/64148 · /tle

For live sub-satellite position, see the globe view (requires WebGL).

§ Visibility from observer

Set your observer location to see the next 7 days of passes ≥ 10°. The values pass through the URL so the page stays shareable.

No JS? Fill the form by hand. The geolocation button needs JavaScript.